カタログに戻る

FLOCK 4G 5

運用中科学SSO
NORAD 62663·PAYLOAD·🇺🇸 United States

打ち上げ Jan 14, 2025 から Vandenberg Space Force Base

Loading…

次のパス (今後24時間)

TLE

最新Source: Space-Track

元期: Sep 13, 2026, 23:15 UTC

1 62663U 25009BG  26256.96914986  .00007370  00000-0  24242-3 0  9996
2 62663  97.3981 339.1649 0003124  18.5818 341.5537 15.31815908 92525

AllMySatでFLOCK 4G 5をリアルタイム追跡

Download on the App Store